Data supplied by UK-AIR on 15/3/2024
All Data GMT hour ending 
Status: R =Ratified P=Provisional,P*=As supplied
,,Newcastle Cradlewell Roadside,,,,,,,,,,,,,,,,,,,,,,,
Date,time,"PM<sub>10</sub> particulate matter (Hourly measured)",status,unit,"Nitric oxide",status,unit,"Nitrogen dioxide",status,unit,"Nitrogen oxides as nitrogen dioxide",status,unit
 
01-01-2023,01:00,10.628,R,ugm-3 (Ref.eq),43.75792,R,ugm-3,59.02794,R,ugm-3,126.12248,R,ugm-3
01-01-2023,02:00,15.459,R,ugm-3 (Ref.eq),71.44921,R,ugm-3,61.32879,R,ugm-3,170.88272,R,ugm-3
01-01-2023,03:00,12.561,R,ugm-3 (Ref.eq),26.08463,R,ugm-3,43.51616,R,ugm-3,83.51204,R,ugm-3
01-01-2023,04:00,6.763,R,ugm-3 (Ref.eq),12.36894,R,ugm-3,19.73123,R,ugm-3,38.69667,R,ugm-3
01-01-2023,05:00,0.000,R,ugm-3 (Ref.eq),5.17440,R,ugm-3,10.91826,R,ugm-3,18.85222,R,ugm-3
01-01-2023,06:00,0.000,R,ugm-3 (Ref.eq),4.96175,R,ugm-3,16.09518,R,ugm-3,23.70309,R,ugm-3
01-01-2023,07:00,1.932,R,ugm-3 (Ref.eq),4.11117,R,ugm-3,16.24180,R,ugm-3,22.54550,R,ugm-3
01-01-2023,08:00,2.899,R,ugm-3 (Ref.eq),11.55379,R,ugm-3,27.43055,R,ugm-3,45.14611,R,ugm-3
01-01-2023,09:00,3.865,R,ugm-3 (Ref.eq),8.82483,R,ugm-3,28.80360,R,ugm-3,42.33482,R,ugm-3
01-01-2023,10:00,8.696,R,ugm-3 (Ref.eq),14.45996,R,ugm-3,33.11720,R,ugm-3,55.28883,R,ugm-3
01-01-2023,11:00,5.797,R,ugm-3 (Ref.eq),13.46761,R,ugm-3,33.81193,R,ugm-3,54.46198,R,ugm-3
01-01-2023,12:00,4.831,R,ugm-3 (Ref.eq),15.23966,R,ugm-3,35.72519,R,ugm-3,59.09235,R,ugm-3
01-01-2023,13:00,6.763,R,ugm-3 (Ref.eq),17.47245,R,ugm-3,34.06558,R,ugm-3,60.85630,R,ugm-3
01-01-2023,14:00,6.763,R,ugm-3 (Ref.eq),22.75317,R,ugm-3,36.11131,R,ugm-3,70.99902,R,ugm-3
01-01-2023,15:00,6.763,R,ugm-3 (Ref.eq),17.68510,R,ugm-3,38.70064,R,ugm-3,65.81741,R,ugm-3
01-01-2023,16:00,7.730,R,ugm-3 (Ref.eq),17.68510,R,ugm-3,41.73243,R,ugm-3,68.84920,R,ugm-3
01-01-2023,17:00,16.425,R,ugm-3 (Ref.eq),57.41455,R,ugm-3,74.13881,R,ugm-3,162.17322,R,ugm-3
01-01-2023,18:00,14.493,R,ugm-3 (Ref.eq),55.99690,R,ugm-3,78.84818,R,ugm-3,164.70890,R,ugm-3
01-01-2023,19:00,13.527,R,ugm-3 (Ref.eq),63.82938,R,ugm-3,77.53249,R,ugm-3,175.40285,R,ugm-3
01-01-2023,20:00,7.730,R,ugm-3 (Ref.eq),43.20268,R,ugm-3,68.20294,R,ugm-3,134.44612,R,ugm-3
01-01-2023,21:00,10.628,R,ugm-3 (Ref.eq),67.01908,R,ugm-3,83.55614,R,ugm-3,186.31729,R,ugm-3
01-01-2023,22:00,23.189,R,ugm-3 (Ref.eq),84.34977,R,ugm-3,73.63007,R,ugm-3,202.96458,R,ugm-3
01-01-2023,23:00,28.020,R,ugm-3 (Ref.eq),73.78833,R,ugm-3,69.97961,R,ugm-3,183.12013,R,ugm-3
01-01-2023,24:00,25.121,R,ugm-3 (Ref.eq),72.05171,R,ugm-3,66.02757,R,ugm-3,176.50532,R,ugm-3
02-01-2023,01:00,5.797,R,ugm-3 (Ref.eq),15.89157,R,ugm-3,30.61525,R,ugm-3,54.98198,R,ugm-3
02-01-2023,02:00,4.831,R,ugm-3 (Ref.eq),5.24989,R,ugm-3,14.00187,R,ugm-3,22.05160,R,ugm-3
02-01-2023,03:00,1.932,R,ugm-3 (Ref.eq),1.24153,R,ugm-3,6.64134,R,ugm-3,8.54499,R,ugm-3
02-01-2023,04:00,4.831,R,ugm-3 (Ref.eq),2.66042,R,ugm-3,11.35687,R,ugm-3,15.43612,R,ugm-3
02-01-2023,05:00,3.865,R,ugm-3 (Ref.eq),0.78039,R,ugm-3,5.58429,R,ugm-3,6.78087,R,ugm-3
02-01-2023,06:00,3.865,R,ugm-3 (Ref.eq),2.16381,R,ugm-3,5.33746,R,ugm-3,8.65525,R,ugm-3
02-01-2023,07:00,2.899,R,ugm-3 (Ref.eq),0.92228,R,ugm-3,4.81543,R,ugm-3,6.22958,R,ugm-3
02-01-2023,08:00,0.000,R,ugm-3 (Ref.eq),5.46273,R,ugm-3,12.51782,R,ugm-3,20.89389,R,ugm-3
02-01-2023,09:00,0.000,R,ugm-3 (Ref.eq),2.16381,R,ugm-3,9.36188,R,ugm-3,12.67967,R,ugm-3
02-01-2023,10:00,0.966,R,ugm-3 (Ref.eq),7.87484,R,ugm-3,15.32452,R,ugm-3,27.39911,R,ugm-3
02-01-2023,11:00,1.932,R,ugm-3 (Ref.eq),9.36468,R,ugm-3,17.56072,R,ugm-3,31.91968,R,ugm-3
02-01-2023,12:00,2.899,R,ugm-3 (Ref.eq),24.01472,R,ugm-3,27.29296,R,ugm-3,64.11501,R,ugm-3
02-01-2023,13:00,3.865,R,ugm-3 (Ref.eq),17.31046,R,ugm-3,23.40453,R,ugm-3,49.94686,R,ugm-3
02-01-2023,14:00,5.797,R,ugm-3 (Ref.eq),13.65682,R,ugm-3,24.32074,R,ugm-3,45.26090,R,ugm-3
02-01-2023,15:00,5.797,R,ugm-3 (Ref.eq),19.47427,R,ugm-3,32.49076,R,ugm-3,62.35089,R,ugm-3
02-01-2023,16:00,4.831,R,ugm-3 (Ref.eq),37.24587,R,ugm-3,55.07796,R,ugm-3,112.18749,R,ugm-3
02-01-2023,17:00,21.256,R,ugm-3 (Ref.eq),151.36011,R,ugm-3,108.67001,R,ugm-3,340.75228,R,ugm-3
02-01-2023,18:00,22.223,R,ugm-3 (Ref.eq),223.65256,R,ugm-3,134.76354,R,ugm-3,477.69269,R,ugm-3
02-01-2023,19:00,17.392,R,ugm-3 (Ref.eq),175.23294,R,ugm-3,121.02006,R,ugm-3,389.70682,R,ugm-3
02-01-2023,20:00,12.561,R,ugm-3 (Ref.eq),92.08597,R,ugm-3,92.32987,R,ugm-3,233.52640,R,ugm-3
02-01-2023,21:00,17.392,R,ugm-3 (Ref.eq),113.26291,R,ugm-3,88.74662,R,ugm-3,262.41399,R,ugm-3
02-01-2023,22:00,18.358,R,ugm-3 (Ref.eq),117.20033,R,ugm-3,90.37225,R,ugm-3,270.07692,R,ugm-3
02-01-2023,23:00,14.493,R,ugm-3 (Ref.eq),83.96283,R,ugm-3,69.72315,R,ugm-3,198.46436,R,ugm-3
02-01-2023,24:00,11.594,R,ugm-3 (Ref.eq),66.08481,R,ugm-3,70.72895,R,ugm-3,172.05757,R,ugm-3
03-01-2023,01:00,12.561,R,ugm-3 (Ref.eq),36.78155,R,ugm-3,48.43150,R,ugm-3,104.82910,R,ugm-3
03-01-2023,02:00,10.628,R,ugm-3 (Ref.eq),10.93506,R,ugm-3,26.75266,R,ugm-3,43.51951,R,ugm-3
03-01-2023,03:00,15.459,R,ugm-3 (Ref.eq),12.92325,R,ugm-3,30.90839,R,ugm-3,50.72376,R,ugm-3
03-01-2023,04:00,23.189,R,ugm-3 (Ref.eq),9.26640,R,ugm-3,25.10264,R,ugm-3,39.31091,R,ugm-3
03-01-2023,05:00,10.628,R,ugm-3 (Ref.eq),13.73983,R,ugm-3,27.50607,R,ugm-3,48.57351,R,ugm-3
03-01-2023,06:00,10.628,R,ugm-3 (Ref.eq),12.49721,R,ugm-3,25.60711,R,ugm-3,44.76923,R,ugm-3
03-01-2023,07:00,17.392,R,ugm-3 (Ref.eq),16.75762,R,ugm-3,34.62250,R,ugm-3,60.31716,R,ugm-3
03-01-2023,08:00,18.358,R,ugm-3 (Ref.eq),54.24924,R,ugm-3,56.19905,R,ugm-3,139.38006,R,ugm-3
03-01-2023,09:00,12.561,R,ugm-3 (Ref.eq),22.11864,R,ugm-3,34.61743,R,ugm-3,68.53221,R,ugm-3
03-01-2023,10:00,14.493,R,ugm-3 (Ref.eq),21.12454,R,ugm-3,35.42495,R,ugm-3,67.81546,R,ugm-3
03-01-2023,11:00,15.459,R,ugm-3 (Ref.eq),28.08321,R,ugm-3,35.23069,R,ugm-3,78.29101,R,ugm-3
03-01-2023,12:00,12.561,R,ugm-3 (Ref.eq),38.45022,R,ugm-3,49.32802,R,ugm-3,108.28419,R,ugm-3
03-01-2023,13:00,16.425,R,ugm-3 (Ref.eq),58.19012,R,ugm-3,61.23849,R,ugm-3,150.46210,R,ugm-3
03-01-2023,14:00,12.561,R,ugm-3 (Ref.eq),53.29065,R,ugm-3,56.18024,R,ugm-3,137.89143,R,ugm-3
03-01-2023,15:00,11.594,R,ugm-3 (Ref.eq),43.91774,R,ugm-3,57.26441,R,ugm-3,124.60401,R,ugm-3
03-01-2023,16:00,11.594,R,ugm-3 (Ref.eq),50.23735,R,ugm-3,60.53109,R,ugm-3,137.56062,R,ugm-3
03-01-2023,17:00,6.763,R,ugm-3 (Ref.eq),34.04779,R,ugm-3,56.90533,R,ugm-3,109.11121,R,ugm-3
03-01-2023,18:00,7.730,R,ugm-3 (Ref.eq),26.66308,R,ugm-3,41.43302,R,ugm-3,82.31583,R,ugm-3
03-01-2023,19:00,8.696,R,ugm-3 (Ref.eq),25.06542,R,ugm-3,36.82551,R,ugm-3,75.25862,R,ugm-3
03-01-2023,20:00,6.763,R,ugm-3 (Ref.eq),13.24278,R,ugm-3,29.64656,R,ugm-3,49.95187,R,ugm-3
03-01-2023,21:00,4.831,R,ugm-3 (Ref.eq),22.22515,R,ugm-3,34.89520,R,ugm-3,68.97328,R,ugm-3
03-01-2023,22:00,8.696,R,ugm-3 (Ref.eq),16.18957,R,ugm-3,31.35842,R,ugm-3,56.18207,R,ugm-3
03-01-2023,23:00,6.763,R,ugm-3 (Ref.eq),13.52681,R,ugm-3,26.50947,R,ugm-3,47.25028,R,ugm-3
03-01-2023,24:00,3.865,R,ugm-3 (Ref.eq),9.86995,R,ugm-3,27.43013,R,ugm-3,42.56385,R,ugm-3
04-01-2023,01:00,1.932,R,ugm-3 (Ref.eq),2.08470,R,ugm-3,7.02280,R,ugm-3,10.21929,R,ugm-3
04-01-2023,02:00,0.966,R,ugm-3 (Ref.eq),2.70063,R,ugm-3,7.10766,R,ugm-3,11.24857,R,ugm-3
04-01-2023,03:00,1.932,R,ugm-3 (Ref.eq),1.45692,R,ugm-3,6.47822,R,ugm-3,8.71213,R,ugm-3
04-01-2023,04:00,1.932,R,ugm-3 (Ref.eq),0.81730,R,ugm-3,4.81224,R,ugm-3,6.06541,R,ugm-3
04-01-2023,05:00,4.831,R,ugm-3 (Ref.eq),1.45692,R,ugm-3,3.88663,R,ugm-3,6.12055,R,ugm-3
04-01-2023,06:00,4.831,R,ugm-3 (Ref.eq),2.45189,R,ugm-3,6.71710,R,ugm-3,10.47661,R,ugm-3
04-01-2023,07:00,12.561,R,ugm-3 (Ref.eq),5.18805,R,ugm-3,9.35907,R,ugm-3,17.31398,R,ugm-3
04-01-2023,08:00,6.763,R,ugm-3 (Ref.eq),12.50818,R,ugm-3,26.53216,R,ugm-3,45.71110,R,ugm-3
04-01-2023,09:00,2.899,R,ugm-3 (Ref.eq),15.06667,R,ugm-3,24.31853,R,ugm-3,47.42044,R,ugm-3
04-01-2023,10:00,5.797,R,ugm-3 (Ref.eq),10.76699,R,ugm-3,18.72534,R,ugm-3,35.23449,R,ugm-3
04-01-2023,11:00,5.797,R,ugm-3 (Ref.eq),14.60472,R,ugm-3,22.49040,R,ugm-3,44.88400,R,ugm-3
04-01-2023,12:00,4.831,R,ugm-3 (Ref.eq),13.11227,R,ugm-3,20.75357,R,ugm-3,40.85877,R,ugm-3
04-01-2023,13:00,5.797,R,ugm-3 (Ref.eq),9.84309,R,ugm-3,16.33731,R,ugm-3,31.42983,R,ugm-3
04-01-2023,14:00,6.763,R,ugm-3 (Ref.eq),10.16290,R,ugm-3,16.67404,R,ugm-3,32.25693,R,ugm-3
04-01-2023,15:00,11.594,R,ugm-3 (Ref.eq),10.41164,R,ugm-3,11.05433,R,ugm-3,27.01862,R,ugm-3
04-01-2023,16:00,8.696,R,ugm-3 (Ref.eq),12.15284,R,ugm-3,16.49012,R,ugm-3,35.12421,R,ugm-3
04-01-2023,17:00,6.763,R,ugm-3 (Ref.eq),11.19340,R,ugm-3,17.79581,R,ugm-3,34.95879,R,ugm-3
04-01-2023,18:00,4.831,R,ugm-3 (Ref.eq),20.39686,R,ugm-3,27.44939,R,ugm-3,58.72415,R,ugm-3
04-01-2023,19:00,6.763,R,ugm-3 (Ref.eq),7.03585,R,ugm-3,12.86692,R,ugm-3,23.65508,R,ugm-3
04-01-2023,20:00,7.730,R,ugm-3 (Ref.eq),7.24906,R,ugm-3,14.91103,R,ugm-3,26.02610,R,ugm-3
04-01-2023,21:00,11.594,R,ugm-3 (Ref.eq),5.72107,R,ugm-3,13.44925,R,ugm-3,22.22144,R,ugm-3
04-01-2023,22:00,7.730,R,ugm-3 (Ref.eq),3.62453,R,ugm-3,8.94430,R,ugm-3,14.50183,R,ugm-3
04-01-2023,23:00,3.865,R,ugm-3 (Ref.eq),2.94937,R,ugm-3,6.83654,R,ugm-3,11.35885,R,ugm-3
04-01-2023,24:00,5.797,R,ugm-3 (Ref.eq),1.38585,R,ugm-3,3.99561,R,ugm-3,6.12055,R,ugm-3
05-01-2023,01:00,11.594,R,ugm-3 (Ref.eq),1.75458,R,ugm-3,3.85363,R,ugm-3,6.54394,R,ugm-3
05-01-2023,02:00,8.696,R,ugm-3 (Ref.eq),0.85358,R,ugm-3,3.17637,R,ugm-3,4.48517,R,ugm-3
05-01-2023,03:00,5.797,R,ugm-3 (Ref.eq),0.78245,R,ugm-3,2.88104,R,ugm-3,4.08077,R,ugm-3
05-01-2023,04:00,2.899,R,ugm-3 (Ref.eq),0.81801,R,ugm-3,3.04709,R,ugm-3,4.30135,R,ugm-3
05-01-2023,05:00,0.966,R,ugm-3 (Ref.eq),0.74688,R,ugm-3,3.26645,R,ugm-3,4.41165,R,ugm-3
05-01-2023,06:00,8.696,R,ugm-3 (Ref.eq),6.40184,R,ugm-3,13.67600,R,ugm-3,23.49202,R,ugm-3
05-01-2023,07:00,7.730,R,ugm-3 (Ref.eq),59.75052,R,ugm-3,56.72542,R,ugm-3,148.34160,R,ugm-3
05-01-2023,08:00,8.696,R,ugm-3 (Ref.eq),165.87881,R,ugm-3,103.49568,R,ugm-3,357.83964,R,ugm-3
05-01-2023,09:00,10.628,R,ugm-3 (Ref.eq),184.15962,R,ugm-3,109.82118,R,ugm-3,392.19533,R,ugm-3
05-01-2023,10:00,19.324,R,ugm-3 (Ref.eq),177.86448,R,ugm-3,112.47011,R,ugm-3,385.19184,R,ugm-3
05-01-2023,11:00,16.425,R,ugm-3 (Ref.eq),132.83820,R,ugm-3,92.78022,R,ugm-3,296.46261,R,ugm-3
05-01-2023,12:00,13.527,R,ugm-3 (Ref.eq),64.05397,R,ugm-3,67.38744,R,ugm-3,165.60216,R,ugm-3
05-01-2023,13:00,16.425,R,ugm-3 (Ref.eq),69.17545,R,ugm-3,63.22938,R,ugm-3,169.29692,R,ugm-3
05-01-2023,14:00,6.763,R,ugm-3 (Ref.eq),47.40919,R,ugm-3,57.11961,R,ugm-3,129.81268,R,ugm-3
05-01-2023,15:00,11.594,R,ugm-3 (Ref.eq),53.56207,R,ugm-3,56.67405,R,ugm-3,138.80141,R,ugm-3
05-01-2023,16:00,6.763,R,ugm-3 (Ref.eq),47.97824,R,ugm-3,56.57795,R,ugm-3,130.14356,R,ugm-3
05-01-2023,17:00,8.696,R,ugm-3 (Ref.eq),48.08494,R,ugm-3,62.53551,R,ugm-3,136.26472,R,ugm-3
05-01-2023,18:00,6.763,R,ugm-3 (Ref.eq),36.34823,R,ugm-3,52.07642,R,ugm-3,107.80960,R,ugm-3
05-01-2023,19:00,8.696,R,ugm-3 (Ref.eq),18.88543,R,ugm-3,32.91608,R,ugm-3,61.87334,R,ugm-3
05-01-2023,20:00,8.696,R,ugm-3 (Ref.eq),20.41476,R,ugm-3,33.10784,R,ugm-3,64.41003,R,ugm-3
05-01-2023,21:00,6.763,R,ugm-3 (Ref.eq),12.41246,R,ugm-3,27.40041,R,ugm-3,46.43257,R,ugm-3
05-01-2023,22:00,3.865,R,ugm-3 (Ref.eq),7.29099,R,ugm-3,18.48896,R,ugm-3,29.66832,R,ugm-3
05-01-2023,23:00,3.865,R,ugm-3 (Ref.eq),6.15288,R,ugm-3,10.74900,R,ugm-3,20.18328,R,ugm-3
05-01-2023,24:00,3.865,R,ugm-3 (Ref.eq),8.18013,R,ugm-3,22.41960,R,ugm-3,34.96229,R,ugm-3
06-01-2023,01:00,2.899,R,ugm-3 (Ref.eq),3.70208,R,ugm-3,11.01595,R,ugm-3,16.69240,R,ugm-3
06-01-2023,02:00,7.730,R,ugm-3 (Ref.eq),1.47134,R,ugm-3,7.81825,R,ugm-3,10.07427,R,ugm-3
06-01-2023,03:00,5.797,R,ugm-3 (Ref.eq),1.53067,R,ugm-3,8.95898,R,ugm-3,11.30598,R,ugm-3
06-01-2023,04:00,5.797,R,ugm-3 (Ref.eq),1.42388,R,ugm-3,7.02698,R,ugm-3,9.21024,R,ugm-3
06-01-2023,05:00,6.763,R,ugm-3 (Ref.eq),2.52738,R,ugm-3,6.05193,R,ugm-3,9.92720,R,ugm-3
06-01-2023,06:00,5.797,R,ugm-3 (Ref.eq),2.99015,R,ugm-3,10.47143,R,ugm-3,15.05625,R,ugm-3
06-01-2023,07:00,9.662,R,ugm-3 (Ref.eq),5.87350,R,ugm-3,16.69451,R,ugm-3,25.70041,R,ugm-3
06-01-2023,08:00,15.459,R,ugm-3 (Ref.eq),10.14513,R,ugm-3,19.46530,R,ugm-3,35.02095,R,ugm-3
06-01-2023,09:00,12.561,R,ugm-3 (Ref.eq),10.53670,R,ugm-3,20.46429,R,ugm-3,36.62033,R,ugm-3
06-01-2023,10:00,17.392,R,ugm-3 (Ref.eq),14.06080,R,ugm-3,24.38128,R,ugm-3,45.94087,R,ugm-3
06-01-2023,11:00,18.358,R,ugm-3 (Ref.eq),22.31929,R,ugm-3,45.02970,R,ugm-3,79.25214,R,ugm-3
06-01-2023,12:00,20.290,R,ugm-3 (Ref.eq),40.90091,R,ugm-3,53.71013,R,ugm-3,116.42398,R,ugm-3
06-01-2023,13:00,16.425,R,ugm-3 (Ref.eq),23.31601,R,ugm-3,37.98631,R,ugm-3,73.73703,R,ugm-3
06-01-2023,14:00,28.986,R,ugm-3 (Ref.eq),44.78097,R,ugm-3,56.36435,R,ugm-3,125.02755,R,ugm-3
06-01-2023,15:00,27.054,R,ugm-3 (Ref.eq),56.42118,R,ugm-3,67.47062,R,ugm-3,153.98188,R,ugm-3
06-01-2023,16:00,19.324,R,ugm-3 (Ref.eq),56.52797,R,ugm-3,73.09774,R,ugm-3,159.77275,R,ugm-3
06-01-2023,17:00,21.256,R,ugm-3 (Ref.eq),82.65614,R,ugm-3,99.76794,R,ugm-3,226.50559,R,ugm-3
06-01-2023,18:00,14.493,R,ugm-3 (Ref.eq),59.05535,R,ugm-3,80.96965,R,ugm-3,171.51993,R,ugm-3
06-01-2023,19:00,20.290,R,ugm-3 (Ref.eq),54.39215,R,ugm-3,72.29143,R,ugm-3,155.69157,R,ugm-3
06-01-2023,20:00,19.324,R,ugm-3 (Ref.eq),30.22182,R,ugm-3,52.65676,R,ugm-3,98.99623,R,ugm-3
06-01-2023,21:00,10.628,R,ugm-3 (Ref.eq),21.67855,R,ugm-3,42.86855,R,ugm-3,76.10853,R,ugm-3
06-01-2023,22:00,9.662,R,ugm-3 (Ref.eq),20.61064,R,ugm-3,39.98360,R,ugm-3,71.58613,R,ugm-3
06-01-2023,23:00,13.527,R,ugm-3 (Ref.eq),13.09968,R,ugm-3,26.29618,R,ugm-3,46.38208,R,ugm-3
06-01-2023,24:00,12.561,R,ugm-3 (Ref.eq),12.95729,R,ugm-3,26.62481,R,ugm-3,46.49238,R,ugm-3
07-01-2023,01:00,7.730,R,ugm-3 (Ref.eq),7.26814,R,ugm-3,19.52276,R,ugm-3,30.66709,R,ugm-3
07-01-2023,02:00,5.797,R,ugm-3 (Ref.eq),3.23028,R,ugm-3,10.93208,R,ugm-3,15.88511,R,ugm-3
07-01-2023,03:00,4.831,R,ugm-3 (Ref.eq),2.06643,R,ugm-3,6.53908,R,ugm-3,9.70757,R,ugm-3
07-01-2023,04:00,3.865,R,ugm-3 (Ref.eq),2.63648,R,ugm-3,7.70581,R,ugm-3,11.74836,R,ugm-3
07-01-2023,05:00,3.865,R,ugm-3 (Ref.eq),2.31583,R,ugm-3,8.58357,R,ugm-3,12.13446,R,ugm-3
07-01-2023,06:00,5.797,R,ugm-3 (Ref.eq),3.99035,R,ugm-3,12.41418,R,ugm-3,18.53263,R,ugm-3
07-01-2023,07:00,3.865,R,ugm-3 (Ref.eq),8.33698,R,ugm-3,15.07090,R,ugm-3,27.85410,R,ugm-3
07-01-2023,08:00,4.831,R,ugm-3 (Ref.eq),10.22527,R,ugm-3,17.80154,R,ugm-3,33.48008,R,ugm-3
07-01-2023,09:00,5.797,R,ugm-3 (Ref.eq),14.18000,R,ugm-3,26.35423,R,ugm-3,48.09659,R,ugm-3
07-01-2023,10:00,4.831,R,ugm-3 (Ref.eq),21.27000,R,ugm-3,35.94616,R,ugm-3,68.55969,R,ugm-3
07-01-2023,11:00,8.696,R,ugm-3 (Ref.eq),26.50733,R,ugm-3,42.31157,R,ugm-3,82.95558,R,ugm-3
07-01-2023,12:00,5.797,R,ugm-3 (Ref.eq),27.07738,R,ugm-3,43.64377,R,ugm-3,85.16184,R,ugm-3
07-01-2023,13:00,7.730,R,ugm-3 (Ref.eq),41.61366,R,ugm-3,54.50426,R,ugm-3,118.31098,R,ugm-3
07-01-2023,14:00,3.865,R,ugm-3 (Ref.eq),32.67100,R,ugm-3,45.54677,R,ugm-3,95.64160,R,ugm-3
07-01-2023,15:00,0.000,R,ugm-3 (Ref.eq),32.17221,R,ugm-3,53.64741,R,ugm-3,102.97743,R,ugm-3
07-01-2023,16:00,4.831,R,ugm-3 (Ref.eq),54.33290,R,ugm-3,65.77909,R,ugm-3,149.08838,R,ugm-3
07-01-2023,17:00,14.493,R,ugm-3 (Ref.eq),51.58954,R,ugm-3,64.69049,R,ugm-3,143.79334,R,ugm-3
07-01-2023,18:00,11.594,R,ugm-3 (Ref.eq),72.89516,R,ugm-3,85.24847,R,ugm-3,197.01949,R,ugm-3
07-01-2023,19:00,12.561,R,ugm-3 (Ref.eq),48.24049,R,ugm-3,64.25480,R,ugm-3,138.22252,R,ugm-3
07-01-2023,20:00,7.730,R,ugm-3 (Ref.eq),20.23678,R,ugm-3,41.39136,R,ugm-3,72.42066,R,ugm-3
07-01-2023,21:00,4.831,R,ugm-3 (Ref.eq),17.70718,R,ugm-3,29.32976,R,ugm-3,56.48039,R,ugm-3
07-01-2023,22:00,13.527,R,ugm-3 (Ref.eq),9.72648,R,ugm-3,22.59278,R,ugm-3,37.50651,R,ugm-3
07-01-2023,23:00,9.662,R,ugm-3 (Ref.eq),10.75970,R,ugm-3,22.82871,R,ugm-3,39.32668,R,ugm-3
07-01-2023,24:00,10.628,R,ugm-3 (Ref.eq),10.40342,R,ugm-3,21.66514,R,ugm-3,37.61682,R,ugm-3
08-01-2023,01:00,10.628,R,ugm-3 (Ref.eq),5.80058,R,ugm-3,10.52298,R,ugm-3,19.41708,R,ugm-3
08-01-2023,02:00,11.594,R,ugm-3 (Ref.eq),3.61348,R,ugm-3,8.80158,R,ugm-3,14.34216,R,ugm-3
08-01-2023,03:00,9.662,R,ugm-3 (Ref.eq),3.31632,R,ugm-3,7.82300,R,ugm-3,12.90795,R,ugm-3
08-01-2023,04:00,6.763,R,ugm-3 (Ref.eq),3.81555,R,ugm-3,6.45074,R,ugm-3,12.30116,R,ugm-3
08-01-2023,05:00,7.730,R,ugm-3 (Ref.eq),2.81709,R,ugm-3,7.54040,R,ugm-3,11.85987,R,ugm-3
08-01-2023,06:00,7.730,R,ugm-3 (Ref.eq),4.74269,R,ugm-3,12.64152,R,ugm-3,19.91354,R,ugm-3
08-01-2023,07:00,12.561,R,ugm-3 (Ref.eq),4.24346,R,ugm-3,11.64181,R,ugm-3,18.14835,R,ugm-3
08-01-2023,08:00,8.696,R,ugm-3 (Ref.eq),14.86993,R,ugm-3,33.02386,R,ugm-3,55.82411,R,ugm-3
08-01-2023,09:00,11.594,R,ugm-3 (Ref.eq),16.51026,R,ugm-3,34.86654,R,ugm-3,60.18192,R,ugm-3
08-01-2023,10:00,8.696,R,ugm-3 (Ref.eq),32.80657,R,ugm-3,49.81663,R,ugm-3,100.11932,R,ugm-3
08-01-2023,11:00,8.696,R,ugm-3 (Ref.eq),32.84223,R,ugm-3,47.88644,R,ugm-3,98.24381,R,ugm-3
08-01-2023,12:00,12.561,R,ugm-3 (Ref.eq),33.23448,R,ugm-3,43.64429,R,ugm-3,94.60311,R,ugm-3
08-01-2023,13:00,11.594,R,ugm-3 (Ref.eq),51.59902,R,ugm-3,62.31839,R,ugm-3,141.43578,R,ugm-3
08-01-2023,14:00,8.696,R,ugm-3 (Ref.eq),45.35864,R,ugm-3,57.82048,R,ugm-3,127.36943,R,ugm-3
08-01-2023,15:00,4.831,R,ugm-3 (Ref.eq),34.94612,R,ugm-3,51.22480,R,ugm-3,104.80811,R,ugm-3
08-01-2023,16:00,3.865,R,ugm-3 (Ref.eq),42.36326,R,ugm-3,63.95788,R,ugm-3,128.91397,R,ugm-3
08-01-2023,17:00,4.831,R,ugm-3 (Ref.eq),68.14494,R,ugm-3,69.76982,R,ugm-3,174.25727,R,ugm-3
08-01-2023,18:00,7.730,R,ugm-3 (Ref.eq),56.12775,R,ugm-3,74.84667,R,ugm-3,160.90803,R,ugm-3
08-01-2023,19:00,15.459,R,ugm-3 (Ref.eq),34.51821,R,ugm-3,58.55554,R,ugm-3,111.48273,R,ugm-3
08-01-2023,20:00,9.662,R,ugm-3 (Ref.eq),34.62519,R,ugm-3,61.14962,R,ugm-3,114.24084,R,ugm-3
08-01-2023,21:00,6.763,R,ugm-3 (Ref.eq),17.08081,R,ugm-3,34.26752,R,ugm-3,60.45773,R,ugm-3
08-01-2023,22:00,5.797,R,ugm-3 (Ref.eq),13.72883,R,ugm-3,27.65760,R,ugm-3,48.70819,R,ugm-3
08-01-2023,23:00,5.797,R,ugm-3 (Ref.eq),16.54592,R,ugm-3,31.55729,R,ugm-3,56.92735,R,ugm-3
08-01-2023,24:00,4.831,R,ugm-3 (Ref.eq),16.43894,R,ugm-3,35.08622,R,ugm-3,60.29224,R,ugm-3
09-01-2023,01:00,3.865,R,ugm-3 (Ref.eq),3.37870,R,ugm-3,11.73749,R,ugm-3,16.91809,R,ugm-3
09-01-2023,02:00,6.763,R,ugm-3 (Ref.eq),0.90416,R,ugm-3,4.42464,R,ugm-3,5.81100,R,ugm-3
09-01-2023,03:00,12.561,R,ugm-3 (Ref.eq),1.14210,R,ugm-3,6.41363,R,ugm-3,8.16482,R,ugm-3
09-01-2023,04:00,9.662,R,ugm-3 (Ref.eq),1.42762,R,ugm-3,4.32080,R,ugm-3,6.50979,R,ugm-3
09-01-2023,05:00,6.763,R,ugm-3 (Ref.eq),2.31988,R,ugm-3,8.96596,R,ugm-3,12.52307,R,ugm-3
09-01-2023,06:00,11.594,R,ugm-3 (Ref.eq),3.60474,R,ugm-3,9.09225,R,ugm-3,14.61944,R,ugm-3
09-01-2023,07:00,11.594,R,ugm-3 (Ref.eq),10.24317,R,ugm-3,16.51196,R,ugm-3,32.21793,R,ugm-3
09-01-2023,08:00,7.730,R,ugm-3 (Ref.eq),23.94832,R,ugm-3,38.69400,R,ugm-3,75.41423,R,ugm-3
09-01-2023,09:00,4.831,R,ugm-3 (Ref.eq),29.33758,R,ugm-3,44.77417,R,ugm-3,89.75783,R,ugm-3
09-01-2023,10:00,0.000,R,ugm-3 (Ref.eq),9.20815,R,ugm-3,23.39507,R,ugm-3,37.51403,R,ugm-3
09-01-2023,11:00,6.763,R,ugm-3 (Ref.eq),15.81089,R,ugm-3,23.91838,R,ugm-3,48.16139,R,ugm-3
09-01-2023,12:00,8.696,R,ugm-3 (Ref.eq),23.84125,R,ugm-3,35.93428,R,ugm-3,72.49035,R,ugm-3
09-01-2023,13:00,14.493,R,ugm-3 (Ref.eq),13.16979,R,ugm-3,20.46519,R,ugm-3,40.65859,R,ugm-3
09-01-2023,14:00,15.459,R,ugm-3 (Ref.eq),14.52603,R,ugm-3,27.43316,R,ugm-3,49.70609,R,ugm-3
09-01-2023,15:00,23.189,R,ugm-3 (Ref.eq),27.37460,R,ugm-3,39.56404,R,ugm-3,81.53785,R,ugm-3
09-01-2023,16:00,18.358,R,ugm-3 (Ref.eq),35.11944,R,ugm-3,55.82431,R,ugm-3,109.67337,R,ugm-3
09-01-2023,17:00,9.662,R,ugm-3 (Ref.eq),38.29589,R,ugm-3,49.02295,R,ugm-3,107.74250,R,ugm-3
09-01-2023,18:00,8.696,R,ugm-3 (Ref.eq),28.55239,R,ugm-3,40.29584,R,ugm-3,84.07556,R,ugm-3
09-01-2023,19:00,5.797,R,ugm-3 (Ref.eq),9.31522,R,ugm-3,15.67292,R,ugm-3,29.95606,R,ugm-3
09-01-2023,20:00,3.865,R,ugm-3 (Ref.eq),2.07005,R,ugm-3,8.79736,R,ugm-3,11.97139,R,ugm-3
09-01-2023,21:00,3.865,R,ugm-3 (Ref.eq),2.35557,R,ugm-3,6.37353,R,ugm-3,9.98535,R,ugm-3
09-01-2023,22:00,4.831,R,ugm-3 (Ref.eq),4.85391,R,ugm-3,9.82494,R,ugm-3,17.26749,R,ugm-3
09-01-2023,23:00,6.763,R,ugm-3 (Ref.eq),7.92329,R,ugm-3,13.00760,R,ugm-3,25.15647,R,ugm-3
09-01-2023,24:00,9.662,R,ugm-3 (Ref.eq),3.53336,R,ugm-3,8.59485,R,ugm-3,14.01259,R,ugm-3
10-01-2023,01:00,13.527,R,ugm-3 (Ref.eq),1.95278,R,ugm-3,4.36220,R,ugm-3,7.35643,R,ugm-3
10-01-2023,02:00,13.527,R,ugm-3 (Ref.eq),2.04804,R,ugm-3,9.21851,R,ugm-3,12.35880,R,ugm-3
10-01-2023,03:00,11.594,R,ugm-3 (Ref.eq),3.07206,R,ugm-3,12.06223,R,ugm-3,16.77266,R,ugm-3
10-01-2023,04:00,9.662,R,ugm-3 (Ref.eq),3.03634,R,ugm-3,12.99977,R,ugm-3,17.65543,R,ugm-3
10-01-2023,05:00,10.628,R,ugm-3 (Ref.eq),4.96531,R,ugm-3,13.68349,R,ugm-3,21.29686,R,ugm-3
10-01-2023,06:00,15.459,R,ugm-3 (Ref.eq),16.53913,R,ugm-3,26.39284,R,ugm-3,51.75248,R,ugm-3
10-01-2023,07:00,26.087,R,ugm-3 (Ref.eq),55.69007,R,ugm-3,67.43957,R,ugm-3,152.82982,R,ugm-3
10-01-2023,08:00,16.425,R,ugm-3 (Ref.eq),58.11914,R,ugm-3,69.45306,R,ugm-3,158.56783,R,ugm-3
10-01-2023,09:00,12.561,R,ugm-3 (Ref.eq),44.25914,R,ugm-3,59.47673,R,ugm-3,127.33979,R,ugm-3
10-01-2023,10:00,7.730,R,ugm-3 (Ref.eq),45.04502,R,ugm-3,57.55448,R,ugm-3,126.62254,R,ugm-3
10-01-2023,11:00,4.831,R,ugm-3 (Ref.eq),23.96924,R,ugm-3,38.72465,R,ugm-3,75.47697,R,ugm-3
10-01-2023,12:00,3.865,R,ugm-3 (Ref.eq),20.32563,R,ugm-3,37.91135,R,ugm-3,69.07687,R,ugm-3
10-01-2023,13:00,2.899,R,ugm-3 (Ref.eq),33.11398,R,ugm-3,51.35157,R,ugm-3,102.12563,R,ugm-3
10-01-2023,14:00,4.831,R,ugm-3 (Ref.eq),30.32769,R,ugm-3,45.96851,R,ugm-3,92.47032,R,ugm-3
10-01-2023,15:00,2.899,R,ugm-3 (Ref.eq),39.72249,R,ugm-3,53.30160,R,ugm-3,114.20857,R,ugm-3
10-01-2023,16:00,6.763,R,ugm-3 (Ref.eq),71.55049,R,ugm-3,66.67956,R,ugm-3,176.38878,R,ugm-3
10-01-2023,17:00,4.831,R,ugm-3 (Ref.eq),34.22135,R,ugm-3,49.54327,R,ugm-3,102.01528,R,ugm-3
10-01-2023,18:00,3.865,R,ugm-3 (Ref.eq),26.61264,R,ugm-3,33.67837,R,ugm-3,74.48385,R,ugm-3
10-01-2023,19:00,2.899,R,ugm-3 (Ref.eq),16.50341,R,ugm-3,33.06840,R,ugm-3,58.37327,R,ugm-3
10-01-2023,20:00,1.932,R,ugm-3 (Ref.eq),9.25191,R,ugm-3,20.57306,R,ugm-3,34.75913,R,ugm-3
10-01-2023,21:00,1.932,R,ugm-3 (Ref.eq),2.67912,R,ugm-3,6.59567,R,ugm-3,10.70361,R,ugm-3
10-01-2023,22:00,80.195,R,ugm-3 (Ref.eq),3.42928,R,ugm-3,8.14894,R,ugm-3,13.40709,R,ugm-3
10-01-2023,23:00,4.831,R,ugm-3 (Ref.eq),10.00207,R,ugm-3,14.62277,R,ugm-3,29.95906,R,ugm-3
10-01-2023,24:00,4.831,R,ugm-3 (Ref.eq),4.03655,R,ugm-3,9.03852,R,ugm-3,15.22781,R,ugm-3
11-01-2023,01:00,8.696,R,ugm-3 (Ref.eq),2.57420,R,ugm-3,5.24940,R,ugm-3,9.19646,R,ugm-3
11-01-2023,02:00,10.628,R,ugm-3 (Ref.eq),1.81148,R,ugm-3,5.31532,R,ugm-3,8.09288,R,ugm-3
11-01-2023,03:00,10.628,R,ugm-3 (Ref.eq),1.53737,R,ugm-3,4.54007,R,ugm-3,6.89734,R,ugm-3
11-01-2023,04:00,8.696,R,ugm-3 (Ref.eq),0.92957,R,ugm-3,4.42362,R,ugm-3,5.84895,R,ugm-3
11-01-2023,05:00,11.594,R,ugm-3 (Ref.eq),1.17984,R,ugm-3,4.20542,R,ugm-3,6.01448,R,ugm-3
11-01-2023,06:00,10.628,R,ugm-3 (Ref.eq),4.96965,R,ugm-3,10.86487,R,ugm-3,18.48488,R,ugm-3
11-01-2023,07:00,14.493,R,ugm-3 (Ref.eq),11.83419,R,ugm-3,20.20373,R,ugm-3,38.34923,R,ugm-3
11-01-2023,08:00,15.459,R,ugm-3 (Ref.eq),29.92513,R,ugm-3,44.49824,R,ugm-3,90.38279,R,ugm-3
11-01-2023,09:00,14.493,R,ugm-3 (Ref.eq),35.03778,R,ugm-3,41.56985,R,ugm-3,95.29370,R,ugm-3
11-01-2023,10:00,13.527,R,ugm-3 (Ref.eq),21.20143,R,ugm-3,22.89105,R,ugm-3,55.39946,R,ugm-3
11-01-2023,11:00,7.730,R,ugm-3 (Ref.eq),14.55141,R,ugm-3,28.23189,R,ugm-3,50.54373,R,ugm-3
11-01-2023,12:00,3.865,R,ugm-3 (Ref.eq),19.73557,R,ugm-3,28.44941,R,ugm-3,58.71019,R,ugm-3
11-01-2023,13:00,6.763,R,ugm-3 (Ref.eq),22.98908,R,ugm-3,35.54491,R,ugm-3,70.79433,R,ugm-3
11-01-2023,14:00,5.797,R,ugm-3 (Ref.eq),40.43646,R,ugm-3,56.41189,R,ugm-3,118.41360,R,ugm-3
11-01-2023,15:00,4.831,R,ugm-3 (Ref.eq),30.06814,R,ugm-3,45.38253,R,ugm-3,91.48637,R,ugm-3
11-01-2023,16:00,5.797,R,ugm-3 (Ref.eq),60.24353,R,ugm-3,79.06825,R,ugm-3,171.44037,R,ugm-3
11-01-2023,17:00,3.865,R,ugm-3 (Ref.eq),71.89896,R,ugm-3,84.20638,R,ugm-3,194.44991,R,ugm-3
11-01-2023,18:00,5.797,R,ugm-3 (Ref.eq),65.39194,R,ugm-3,73.27092,R,ugm-3,173.53717,R,ugm-3
11-01-2023,19:00,10.628,R,ugm-3 (Ref.eq),33.96520,R,ugm-3,57.56093,R,ugm-3,109.64017,R,ugm-3